| time (UTC) | temp F | wind direction | speed MPH | gust MPH | rain 1hr in | rain 24hr in | rain mn in | humidity % | barometer mb |
| 20260508061128 | 109 | 315 | 0.0 | 3.0 | 0.00 | 0.00 | 0.00 | 21 | 1006.6 |
| 20260508060541 | 109 | 225 | 0.0 | 3.0 | 0.00 | 0.00 | 0.00 | 21 | 1006.8 |
| 20260508055954 | 109 | 180 | 0.0 | 3.0 | 0.00 | 0.00 | 0.00 | 21 | 1006.7 |
| 20260508055407 | 109 | 315 | 0.0 | 2.0 | 0.00 | 0.00 | 0.00 | 21 | 1006.8 |
| 20260508054820 | 109 | 315 | 0.0 | 2.0 | 0.00 | 0.00 | 0.00 | 21 | 1006.9 |
| 20260508054233 | 109 | 0 | 0.0 | 2.0 | 0.00 | 0.00 | 0.00 | 21 | 1006.8 |
| 20260508053646 | 109 | 315 | 0.0 | 3.0 | 0.00 | 0.00 | 0.00 | 21 | 1006.9 |
| 20260508053059 | 109 | 270 | 0.0 | 3.0 | 0.00 | 0.00 | 0.00 | 21 | 1007.0 |
| 20260508052512 | 109 | 270 | 0.0 | 3.0 | 0.00 | 0.00 | 0.00 | 21 | 1007.0 |
| 20260508051925 | 109 | 45 | 0.0 | 3.0 | 0.00 | 0.00 | 0.00 | 20 | 1007.2 |
| 20260508051338 | 109 | 0 | 0.0 | 3.0 | 0.00 | 0.00 | 0.00 | 20 | 1007.2 |
| 20260508050751 | 109 | 225 | 0.0 | 3.0 | 0.00 | 0.00 | 0.00 | 20 | 1007.3 |
| 20260508050203 | 109 | 0 | 0.0 | 2.0 | 0.00 | 0.00 | 0.00 | 20 | 1007.3 |
| 20260508045616 | 109 | 180 | 0.0 | 3.0 | 0.00 | 0.00 | 0.00 | 20 | 1007.3 |
| 20260508045029 | 109 | 180 | 0.0 | 3.0 | 0.00 | 0.00 | 0.00 | 20 | 1007.4 |
| 20260508044442 | 109 | 315 | 0.0 | 2.0 | 0.00 | 0.00 | 0.00 | 21 | 1007.4 |
| 20260508043855 | 109 | 0 | 0.0 | 3.0 | 0.00 | 0.00 | 0.00 | 21 | 1007.5 |
| 20260508043308 | 109 | 180 | 0.0 | 3.0 | 0.00 | 0.00 | 0.00 | 21 | 1007.6 |
| 20260508042721 | 109 | 315 | 0.0 | 3.0 | 0.00 | 0.00 | 0.00 | 22 | 1007.6 |
| 20260508042134 | 109 | 225 | 0.0 | 3.0 | 0.00 | 0.00 | 0.00 | 22 | 1007.7 |
| 20260508041547 | 109 | 225 | 0.0 | 5.0 | 0.00 | 0.00 | 0.00 | 22 | 1007.8 |
| 20260508041000 | 109 | 45 | 0.0 | 5.0 | 0.00 | 0.00 | 0.00 | 22 | 1007.8 |
| 20260508040413 | 109 | 270 | 0.0 | 3.0 | 0.00 | 0.00 | 0.00 | 23 | 1007.9 |
| 20260508035826 | 108 | 315 | 0.0 | 3.0 | 0.00 | 0.00 | 0.00 | 23 | 1007.9 |
| 20260508035239 | 108 | 0 | 0.0 | 2.0 | 0.00 | 0.00 | 0.00 | 23 | 1008.0 |
| 20260508034652 | 108 | 180 | 0.0 | 3.0 | 0.00 | 0.00 | 0.00 | 23 | 1008.1 |
| 20260508034105 | 107 | 225 | 0.0 | 3.0 | 0.00 | 0.00 | 0.00 | 24 | 1008.1 |
| 20260508033518 | 107 | 180 | 0.0 | 3.0 | 0.00 | 0.00 | 0.00 | 24 | 1008.0 |
| 20260508032931 | 107 | 0 | 0.0 | 3.0 | 0.00 | 0.00 | 0.00 | 24 | 1008.2 |
| 20260508032344 | 107 | 315 | 0.0 | 2.0 | 0.00 | 0.00 | 0.00 | 24 | 1008.1 |
| 20260508031757 | 107 | 225 | 0.0 | 2.0 | 0.00 | 0.00 | 0.00 | 24 | 1008.2 |
| 20260508031210 | 106 | 270 | 0.0 | 2.0 | 0.00 | 0.00 | 0.00 | 25 | 1008.3 |
| 20260508030623 | 106 | 270 | 0.0 | 2.0 | 0.00 | 0.00 | 0.00 | 25 | 1008.3 |
| 20260508030036 | 105 | 315 | 0.0 | 2.0 | 0.00 | 0.00 | 0.00 | 25 | 1008.6 |
| 20260508025449 | 105 | 45 | 0.0 | 3.0 | 0.00 | 0.00 | 0.00 | 25 | 1008.6 |
| 20260508024902 | 105 | 315 | 0.0 | 3.0 | 0.00 | 0.00 | 0.00 | 25 | 1008.8 |
| 20260508024315 | 105 | 315 | 0.0 | 3.0 | 0.00 | 0.00 | 0.00 | 25 | 1008.7 |
| 20260508023728 | 105 | 225 | 0.0 | 3.0 | 0.00 | 0.00 | 0.00 | 25 | 1008.8 |
| 20260508023141 | 105 | 315 | 0.0 | 3.0 | 0.00 | 0.00 | 0.00 | 25 | 1008.7 |
| 20260508022554 | 105 | 0 | 0.0 | 3.0 | 0.00 | 0.00 | 0.00 | 25 | 1008.8 |
| 20260508022007 | 104 | 270 | 0.0 | 3.0 | 0.00 | 0.00 | 0.00 | 25 | 1009.0 |
| 20260508021420 | 105 | 45 | 0.0 | 2.0 | 0.00 | 0.00 | 0.00 | 25 | 1009.0 |
| 20260508020833 | 105 | 270 | 0.0 | 3.0 | 0.00 | 0.00 | 0.00 | 25 | 1009.0 |
| 20260508020245 | 105 | 315 | 0.0 | 3.0 | 0.00 | 0.00 | 0.00 | 26 | 1009.0 |
| 20260508015659 | 105 | 315 | 0.0 | 2.0 | 0.00 | 0.00 | 0.00 | 26 | 1009.1 |
| 20260508015112 | 105 | 225 | 0.0 | 2.0 | 0.00 | 0.00 | 0.00 | 26 | 1009.1 |
| 20260508014524 | 105 | 45 | 0.0 | 3.0 | 0.00 | 0.00 | 0.00 | 26 | 1009.1 |
| 20260508013938 | 105 | 315 | 0.0 | 1.0 | 0.00 | 0.00 | 0.00 | 27 | 1009.1 |
| 20260508013351 | 104 | 0 | 0.0 | 2.0 | 0.00 | 0.00 | 0.00 | 27 | 1009.1 |
| 20260508012803 | 104 | 270 | 0.0 | 3.0 | 0.00 | 0.00 | 0.00 | 28 | 1009.1 |
| 20260508012216 | 103 | 180 | 0.0 | 3.0 | 0.00 | 0.00 | 0.00 | 27 | 1009.1 |
| 20260508011629 | 103 | 270 | 0.0 | 3.0 | 0.00 | 0.00 | 0.00 | 28 | 1009.0 |
| 20260508011042 | 102 | 90 | 0.0 | 3.0 | 0.00 | 0.00 | 0.00 | 28 | 1009.0 |
| 20260508010455 | 102 | 225 | 0.0 | 2.0 | 0.00 | 0.00 | 0.00 | 29 | 1009.1 |
| 20260508005908 | 101 | 180 | 0.0 | 2.0 | 0.00 | 0.00 | 0.00 | 30 | 1009.2 |
| 20260508005321 | 100 | 0 | 0.0 | 2.0 | 0.00 | 0.00 | 0.00 | 31 | 1009.2 |
| 20260508004734 | 100 | 315 | 0.0 | 2.0 | 0.00 | 0.00 | 0.00 | 32 | 1009.1 |
| 20260508004147 | 99 | 315 | 0.0 | 3.0 | 0.00 | 0.00 | 0.00 | 32 | 1009.1 |
| 20260508003600 | 98 | 0 | 0.0 | 3.0 | 0.00 | 0.00 | 0.00 | 34 | 1008.8 |
| 20260508003013 | 98 | 315 | 0.0 | 3.0 | 0.00 | 0.00 | 0.00 | 35 | 1008.8 |
| 20260508002426 | 97 | 0 | 0.0 | 2.0 | 0.00 | 0.00 | 0.00 | 36 | 1008.9 |
| 20260508001839 | 96 | 45 | 0.0 | 2.0 | 0.00 | 0.00 | 0.00 | 36 | 1008.7 |
| 20260508001252 | 96 | 270 | 0.0 | 3.0 | 0.00 | 0.00 | 0.00 | 37 | 1008.9 |
| 20260508000705 | 96 | 270 | 0.0 | 1.0 | 0.00 | 0.00 | 0.00 | 37 | 1008.8 |
| 20260508000118 | 96 | 0 | 0.0 | 3.0 | 0.00 | 0.00 | 0.00 | 38 | 1008.8 |
| 20260507235531 | 95 | 45 | 0.0 | 2.0 | 0.00 | 0.00 | 0.00 | 39 | 1008.6 |
| 20260507234944 | 95 | 315 | 0.0 | 3.0 | 0.00 | 0.00 | 0.00 | 40 | 1008.5 |
| 20260507234359 | 95 | 45 | 0.0 | 3.0 | 0.00 | 0.00 | 0.00 | 41 | 1008.6 |
| 20260507233810 | 94 | 315 | 0.0 | 1.0 | 0.00 | 0.00 | 0.00 | 42 | 1008.5 |
| 20260507233223 | 93 | 45 | 0.0 | 2.0 | 0.00 | 0.00 | 0.00 | 42 | 1008.5 |
| 20260507232636 | 93 | 0 | 0.0 | 2.0 | 0.00 | 0.00 | 0.00 | 44 | 1008.5 |
| 20260507232049 | 92 | 45 | 0.0 | 2.0 | 0.00 | 0.00 | 0.00 | 44 | 1008.3 |
| 20260507231502 | 91 | 315 | 0.0 | 2.0 | 0.00 | 0.00 | 0.00 | 45 | 1008.3 |
| 20260507230915 | 91 | 0 | 0.0 | 1.0 | 0.00 | 0.00 | 0.00 | 46 | 1008.3 |
| 20260507230328 | 90 | 315 | 0.0 | 1.0 | 0.00 | 0.00 | 0.00 | 47 | 1008.1 |
| 20260507225741 | 90 | 315 | 0.0 | 1.0 | 0.00 | 0.00 | 0.00 | 47 | 1008.1 |
| 20260507225154 | 89 | 45 | 0.0 | 1.0 | 0.00 | 0.00 | 0.00 | 48 | 1008.0 |
| 20260507224607 | 89 | 315 | 0.0 | 1.0 | 0.00 | 0.00 | 0.00 | 48 | 1007.9 |
| 20260507224020 | 88 | 315 | 0.0 | 0.0 | 0.00 | 0.00 | 0.00 | 49 | 1008.0 |
| 20260507223433 | 88 | 315 | 0.0 | 0.0 | 0.00 | 0.00 | 0.00 | 49 | 1007.7 |
| 20260507222846 | 87 | 315 | 0.0 | 0.0 | 0.00 | 0.00 | 0.00 | 49 | 1007.6 |
| 20260507222258 | 87 | 0 | 0.0 | 0.0 | 0.00 | 0.00 | 0.00 | 49 | 1007.6 |
| 20260507221712 | 87 | 0 | 0.0 | 0.0 | 0.00 | 0.00 | 0.00 | 49 | 1007.7 |
| 20260507221124 | 86 | 0 | 0.0 | 0.0 | 0.00 | 0.00 | 0.00 | 49 | 1007.6 |
| 20260507220538 | 86 | 0 | 0.0 | 0.0 | 0.00 | 0.00 | 0.00 | 48 | 1007.6 |
| 20260507215950 | 86 | 270 | 0.0 | 0.0 | 0.00 | 0.00 | 0.00 | 48 | 1007.5 |
| 20260507215403 | 86 | 270 | 0.0 | 0.0 | 0.00 | 0.00 | 0.00 | 48 | 1007.4 |
| 20260507214816 | 86 | 315 | 0.0 | 0.0 | 0.00 | 0.00 | 0.00 | 48 | 1007.6 |
| 20260507214229 | 86 | 315 | 0.0 | 0.0 | 0.00 | 0.00 | 0.00 | 48 | 1007.4 |
| 20260507213642 | 86 | 315 | 0.0 | 0.0 | 0.00 | 0.00 | 0.00 | 48 | 1007.4 |
| 20260507213055 | 86 | 315 | 0.0 | 0.0 | 0.00 | 0.00 | 0.00 | 48 | 1007.5 |
| 20260507212508 | 86 | 315 | 0.0 | 0.0 | 0.00 | 0.00 | 0.00 | 48 | 1007.6 |
| 20260507211921 | 86 | 315 | 0.0 | 0.0 | 0.00 | 0.00 | 0.00 | 48 | 1007.6 |
| 20260507211334 | 86 | 0 | 0.0 | 0.0 | 0.00 | 0.00 | 0.00 | 48 | 1007.4 |
| 20260507210747 | 86 | 0 | 0.0 | 0.0 | 0.00 | 0.00 | 0.00 | 48 | 1007.4 |
| 20260507210200 | 86 | 0 | 0.0 | 0.0 | 0.00 | 0.00 | 0.00 | 47 | 1007.4 |
| 20260507205613 | 86 | 315 | 0.0 | 0.0 | 0.00 | 0.00 | 0.00 | 47 | 1007.4 |
| 20260507205026 | 86 | 315 | 0.0 | 0.0 | 0.00 | 0.00 | 0.00 | 47 | 1007.4 |
| 20260507204439 | 86 | 315 | 0.0 | 0.0 | 0.00 | 0.00 | 0.00 | 47 | 1007.4 |
| 20260507203852 | 87 | 225 | 0.0 | 0.0 | 0.00 | 0.00 | 0.00 | 47 | 1007.4 |
| 20260507203305 | 87 | 270 | 0.0 | 0.0 | 0.00 | 0.00 | 0.00 | 47 | 1007.3 |
| 20260507202718 | 87 | 270 | 0.0 | 0.0 | 0.00 | 0.00 | 0.00 | 47 | 1007.2 |
| 20260507202131 | 87 | 270 | 0.0 | 0.0 | 0.00 | 0.00 | 0.00 | 47 | 1007.3 |
| 20260507201544 | 87 | 270 | 0.0 | 0.0 | 0.00 | 0.00 | 0.00 | 47 | 1007.2 |
| 20260507200957 | 87 | 270 | 0.0 | 0.0 | 0.00 | 0.00 | 0.00 | 47 | 1007.1 |
| 20260507200410 | 87 | 270 | 0.0 | 0.0 | 0.00 | 0.00 | 0.00 | 47 | 1007.1 |
| 20260507195823 | 87 | 270 | 0.0 | 0.0 | 0.00 | 0.00 | 0.00 | 47 | 1007.1 |
| 20260507195236 | 87 | 315 | 0.0 | 0.0 | 0.00 | 0.00 | 0.00 | 47 | 1007.1 |
| 20260507194649 | 87 | 315 | 0.0 | 0.0 | 0.00 | 0.00 | 0.00 | 46 | 1007.1 |
| 20260507194102 | 87 | 315 | 0.0 | 0.0 | 0.00 | 0.00 | 0.00 | 47 | 1006.9 |
| 20260507193515 | 87 | 315 | 0.0 | 0.0 | 0.00 | 0.00 | 0.00 | 47 | 1007.1 |
| 20260507192928 | 87 | 315 | 0.0 | 0.0 | 0.00 | 0.00 | 0.00 | 46 | 1007.0 |
| 20260507192341 | 87 | 315 | 0.0 | 0.0 | 0.00 | 0.00 | 0.00 | 46 | 1006.9 |
| 20260507191754 | 87 | 315 | 0.0 | 0.0 | 0.00 | 0.00 | 0.00 | 46 | 1006.9 |
| 20260507191207 | 87 | 315 | 0.0 | 0.0 | 0.00 | 0.00 | 0.00 | 46 | 1006.9 |
| 20260507190620 | 87 | 315 | 0.0 | 0.0 | 0.00 | 0.00 | 0.00 | 46 | 1006.8 |
| 20260507190033 | 87 | 315 | 0.0 | 0.0 | 0.00 | 0.00 | 0.00 | 46 | 1006.6 |
| 20260507185446 | 87 | 315 | 0.0 | 0.0 | 0.00 | 0.00 | 0.00 | 46 | 1006.7 |
| 20260507184859 | 87 | 315 | 0.0 | 0.0 | 0.00 | 0.00 | 0.00 | 46 | 1006.8 |
| 20260507184312 | 87 | 0 | 0.0 | 0.0 | 0.00 | 0.00 | 0.00 | 46 | 1006.8 |
| 20260507183724 | 87 | 0 | 0.0 | 0.0 | 0.00 | 0.00 | 0.00 | 45 | 1006.8 |
| 20260507183138 | 87 | 0 | 0.0 | 0.0 | 0.00 | 0.00 | 0.00 | 45 | 1006.8 |
| 20260507182551 | 87 | 315 | 0.0 | 0.0 | 0.00 | 0.00 | 0.00 | 45 | 1006.8 |
| 20260507182004 | 87 | 225 | 0.0 | 0.0 | 0.00 | 0.00 | 0.00 | 45 | 1006.9 |
| 20260507181416 | 87 | 225 | 0.0 | 0.0 | 0.00 | 0.00 | 0.00 | 45 | 1006.9 |
| 20260507180829 | 87 | 225 | 0.0 | 0.0 | 0.00 | 0.00 | 0.00 | 45 | 1006.8 |
| 20260507180242 | 88 | 270 | 0.0 | 0.0 | 0.00 | 0.00 | 0.00 | 45 | 1006.8 |
| 20260507175655 | 88 | 270 | 0.0 | 0.0 | 0.00 | 0.00 | 0.00 | 45 | 1006.8 |
| 20260507175108 | 88 | 270 | 0.0 | 0.0 | 0.00 | 0.00 | 0.00 | 45 | 1006.8 |
| 20260507174521 | 88 | 270 | 0.0 | 0.0 | 0.00 | 0.00 | 0.00 | 45 | 1006.9 |
| 20260507173934 | 88 | 315 | 0.0 | 0.0 | 0.00 | 0.00 | 0.00 | 45 | 1007.0 |
| 20260507173347 | 88 | 0 | 0.0 | 0.0 | 0.00 | 0.00 | 0.00 | 45 | 1007.0 |
| 20260507172800 | 88 | 315 | 0.0 | 0.0 | 0.00 | 0.00 | 0.00 | 45 | 1007.0 |
| 20260507172213 | 88 | 315 | 0.0 | 0.0 | 0.00 | 0.00 | 0.00 | 45 | 1007.1 |
| 20260507171626 | 88 | 315 | 0.0 | 0.0 | 0.00 | 0.00 | 0.00 | 45 | 1007.2 |
| 20260507171039 | 88 | 315 | 0.0 | 0.0 | 0.00 | 0.00 | 0.00 | 45 | 1007.2 |
| 20260507170452 | 88 | 315 | 0.0 | 0.0 | 0.00 | 0.00 | 0.00 | 44 | 1007.1 |
| 20260507165905 | 89 | 270 | 0.0 | 0.0 | 0.00 | 0.00 | 0.00 | 44 | 1007.2 |
| 20260507165318 | 89 | 270 | 0.0 | 0.0 | 0.00 | 0.00 | 0.00 | 44 | 1007.1 |
| 20260507164731 | 89 | 270 | 0.0 | 0.0 | 0.00 | 0.00 | 0.00 | 44 | 1007.1 |
| 20260507164144 | 89 | 270 | 0.0 | 0.0 | 0.00 | 0.00 | 0.00 | 44 | 1007.0 |
| 20260507163557 | 89 | 315 | 0.0 | 0.0 | 0.00 | 0.00 | 0.00 | 44 | 1007.0 |
| 20260507163010 | 89 | 315 | 0.0 | 0.0 | 0.00 | 0.00 | 0.00 | 44 | 1007.0 |
| 20260507162423 | 89 | 315 | 0.0 | 0.0 | 0.00 | 0.00 | 0.00 | 44 | 1007.3 |
| 20260507161836 | 89 | 315 | 0.0 | 0.0 | 0.00 | 0.00 | 0.00 | 44 | 1007.3 |
| 20260507161249 | 89 | 315 | 0.0 | 0.0 | 0.00 | 0.00 | 0.00 | 43 | 1007.3 |
| 20260507160702 | 89 | 315 | 0.0 | 0.0 | 0.00 | 0.00 | 0.00 | 43 | 1007.3 |
| 20260507160115 | 89 | 315 | 0.0 | 0.0 | 0.00 | 0.00 | 0.00 | 43 | 1007.3 |
| 20260507155528 | 90 | 270 | 0.0 | 0.0 | 0.00 | 0.00 | 0.00 | 43 | 1007.3 |
| 20260507154941 | 90 | 270 | 0.0 | 0.0 | 0.00 | 0.00 | 0.00 | 43 | 1007.5 |
| 20260507154354 | 90 | 270 | 0.0 | 0.0 | 0.00 | 0.00 | 0.00 | 43 | 1007.5 |
| 20260507153807 | 90 | 270 | 0.0 | 0.0 | 0.00 | 0.00 | 0.00 | 43 | 1007.6 |
| 20260507153220 | 90 | 270 | 0.0 | 0.0 | 0.00 | 0.00 | 0.00 | 42 | 1007.7 |
| 20260507152633 | 90 | 270 | 0.0 | 0.0 | 0.00 | 0.00 | 0.00 | 42 | 1007.7 |
| 20260507152046 | 90 | 270 | 0.0 | 0.0 | 0.00 | 0.00 | 0.00 | 42 | 1007.8 |
| 20260507151459 | 90 | 270 | 0.0 | 0.0 | 0.00 | 0.00 | 0.00 | 42 | 1007.8 |
| 20260507150911 | 90 | 270 | 0.0 | 0.0 | 0.00 | 0.00 | 0.00 | 42 | 1007.9 |
| 20260507150325 | 90 | 270 | 0.0 | 0.0 | 0.00 | 0.00 | 0.00 | 42 | 1007.9 |
| 20260507145737 | 90 | 270 | 0.0 | 0.0 | 0.00 | 0.00 | 0.00 | 41 | 1007.9 |
| 20260507145150 | 91 | 270 | 0.0 | 0.0 | 0.00 | 0.00 | 0.00 | 41 | 1007.9 |
| 20260507144603 | 91 | 315 | 0.0 | 0.0 | 0.00 | 0.00 | 0.00 | 41 | 1007.9 |
| 20260507144016 | 91 | 315 | 0.0 | 0.0 | 0.00 | 0.00 | 0.00 | 41 | 1007.9 |
| 20260507143429 | 91 | 315 | 0.0 | 0.0 | 0.00 | 0.00 | 0.00 | 41 | 1007.9 |
| 20260507142842 | 91 | 315 | 0.0 | 0.0 | 0.00 | 0.00 | 0.00 | 40 | 1008.1 |
| 20260507141708 | 91 | 315 | 0.0 | 0.0 | 0.00 | 0.00 | 0.00 | 40 | 1007.9 |
| 20260507141121 | 91 | 315 | 0.0 | 0.0 | 0.00 | 0.00 | 0.00 | 40 | 1007.9 |
| 20260507140534 | 91 | 270 | 0.0 | 0.0 | 0.00 | 0.00 | 0.00 | 40 | 1007.9 |
| 20260507135947 | 91 | 270 | 0.0 | 0.0 | 0.00 | 0.00 | 0.00 | 40 | 1007.8 |
| 20260507135400 | 92 | 315 | 0.0 | 0.0 | 0.00 | 0.00 | 0.00 | 39 | 1007.9 |
| 20260507134813 | 92 | 0 | 0.0 | 0.0 | 0.00 | 0.00 | 0.00 | 39 | 1007.8 |
| 20260507134226 | 92 | 315 | 0.0 | 0.0 | 0.00 | 0.00 | 0.00 | 39 | 1007.8 |
| 20260507133639 | 92 | 315 | 0.0 | 0.0 | 0.00 | 0.00 | 0.00 | 39 | 1007.7 |
| 20260507133052 | 92 | 0 | 0.0 | 0.0 | 0.00 | 0.00 | 0.00 | 39 | 1007.8 |
| 20260507132505 | 92 | 45 | 0.0 | 0.0 | 0.00 | 0.00 | 0.00 | 38 | 1007.7 |
| 20260507131918 | 92 | 315 | 0.0 | 0.0 | 0.00 | 0.00 | 0.00 | 38 | 1007.8 |
| 20260507131331 | 93 | 315 | 0.0 | 0.0 | 0.00 | 0.00 | 0.00 | 38 | 1007.8 |
| 20260507130744 | 93 | 0 | 0.0 | 0.0 | 0.00 | 0.00 | 0.00 | 38 | 1007.6 |
| 20260507130157 | 93 | 0 | 0.0 | 1.0 | 0.00 | 0.00 | 0.00 | 38 | 1007.6 |
| 20260507125610 | 93 | 45 | 0.0 | 1.0 | 0.00 | 0.00 | 0.00 | 37 | 1007.7 |
| 20260507125023 | 93 | 45 | 0.0 | 1.0 | 0.00 | 0.00 | 0.00 | 37 | 1007.7 |
| 20260507124436 | 93 | 0 | 0.0 | 1.0 | 0.00 | 0.00 | 0.00 | 37 | 1007.7 |
| 20260507123849 | 93 | 0 | 0.0 | 1.0 | 0.00 | 0.00 | 0.00 | 37 | 1007.6 |
| 20260507123302 | 93 | 0 | 0.0 | 1.0 | 0.00 | 0.00 | 0.00 | 36 | 1007.7 |
| 20260507122715 | 94 | 45 | 0.0 | 0.0 | 0.00 | 0.00 | 0.00 | 36 | 1007.6 |
| 20260507122128 | 94 | 315 | 0.0 | 0.0 | 0.00 | 0.00 | 0.00 | 36 | 1007.5 |
| 20260507121541 | 94 | 0 | 0.0 | 0.0 | 0.00 | 0.00 | 0.00 | 36 | 1007.5 |
| 20260507120954 | 94 | 0 | 0.0 | 0.0 | 0.00 | 0.00 | 0.00 | 35 | 1007.5 |
| 20260507120407 | 94 | 0 | 0.0 | 0.0 | 0.00 | 0.00 | 0.00 | 35 | 1007.6 |
| 20260507115820 | 95 | 315 | 0.0 | 0.0 | 0.00 | 0.00 | 0.00 | 35 | 1007.6 |
| 20260507115233 | 95 | 270 | 0.0 | 0.0 | 0.00 | 0.00 | 0.00 | 35 | 1007.6 |
| 20260507114646 | 95 | 0 | 0.0 | 1.0 | 0.00 | 0.00 | 0.00 | 35 | 1007.6 |
| 20260507114058 | 95 | 315 | 0.0 | 1.0 | 0.00 | 0.00 | 0.00 | 34 | 1007.6 |
| 20260507113511 | 95 | 270 | 0.0 | 1.0 | 0.00 | 0.00 | 0.00 | 34 | 1007.5 |
| 20260507112925 | 95 | 270 | 0.0 | 0.0 | 0.00 | 0.00 | 0.00 | 34 | 1007.3 |
| 20260507112337 | 96 | 45 | 0.0 | 1.0 | 0.00 | 0.00 | 0.00 | 33 | 1007.2 |
| 20260507111750 | 96 | 0 | 0.0 | 2.0 | 0.00 | 0.00 | 0.00 | 33 | 1007.2 |
| 20260507111203 | 96 | 270 | 0.0 | 2.0 | 0.00 | 0.00 | 0.00 | 32 | 1007.1 |
| 20260507110617 | 96 | 270 | 0.0 | 2.0 | 0.00 | 0.00 | 0.00 | 32 | 1007.0 |
| 20260507110036 | 97 | 315 | 0.0 | 2.0 | 0.00 | 0.00 | 0.00 | 32 | 1006.9 |
| 20260507105443 | 97 | 270 | 0.0 | 2.0 | 0.00 | 0.00 | 0.00 | 31 | 1006.8 |
| 20260507104856 | 97 | 315 | 0.0 | 1.0 | 0.00 | 0.00 | 0.00 | 30 | 1006.9 |
| 20260507104310 | 97 | 225 | 0.0 | 1.0 | 0.00 | 0.00 | 0.00 | 29 | 1006.8 |
| 20260507103721 | 98 | 225 | 0.0 | 1.0 | 0.00 | 0.00 | 0.00 | 29 | 1006.9 |
| 20260507103134 | 98 | 270 | 0.0 | 1.0 | 0.00 | 0.00 | 0.00 | 29 | 1006.8 |
| 20260507102547 | 98 | 225 | 0.0 | 0.0 | 0.00 | 0.00 | 0.00 | 28 | 1006.5 |
| 20260507102000 | 98 | 225 | 0.0 | 1.0 | 0.00 | 0.00 | 0.00 | 28 | 1006.5 |
| 20260507101413 | 99 | 270 | 0.0 | 1.0 | 0.00 | 0.00 | 0.00 | 28 | 1006.5 |
| 20260507100826 | 99 | 270 | 0.0 | 0.0 | 0.00 | 0.00 | 0.00 | 28 | 1006.5 |
| 20260507100239 | 99 | 225 | 0.0 | 0.0 | 0.00 | 0.00 | 0.00 | 28 | 1006.4 |
| 20260507095652 | 100 | 270 | 0.0 | 1.0 | 0.00 | 0.00 | 0.00 | 27 | 1006.2 |
| 20260507095105 | 100 | 270 | 0.0 | 1.0 | 0.00 | 0.00 | 0.00 | 27 | 1006.2 |
| 20260507094518 | 100 | 225 | 0.0 | 1.0 | 0.00 | 0.00 | 0.00 | 27 | 1006.2 |
| 20260507093931 | 100 | 270 | 0.0 | 1.0 | 0.00 | 0.00 | 0.00 | 27 | 1006.2 |
| 20260507093344 | 101 | 270 | 0.0 | 1.0 | 0.00 | 0.00 | 0.00 | 27 | 1006.1 |
| 20260507092757 | 101 | 315 | 0.0 | 1.0 | 0.00 | 0.00 | 0.00 | 27 | 1006.1 |
| 20260507092210 | 101 | 315 | 0.0 | 2.0 | 0.00 | 0.00 | 0.00 | 26 | 1006.1 |
| 20260507091623 | 101 | 270 | 0.0 | 2.0 | 0.00 | 0.00 | 0.00 | 26 | 1006.1 |
| 20260507091036 | 102 | 225 | 0.0 | 1.0 | 0.00 | 0.00 | 0.00 | 26 | 1005.9 |
| 20260507090449 | 102 | 225 | 0.0 | 2.0 | 0.00 | 0.00 | 0.00 | 25 | 1005.9 |
| 20260507085902 | 102 | 225 | 0.0 | 2.0 | 0.00 | 0.00 | 0.00 | 25 | 1005.9 |
| 20260507085315 | 103 | 270 | 0.0 | 2.0 | 0.00 | 0.00 | 0.00 | 25 | 1005.9 |
| 20260507084728 | 103 | 315 | 0.0 | 1.0 | 0.00 | 0.00 | 0.00 | 24 | 1005.7 |
| 20260507084141 | 104 | 0 | 0.0 | 2.0 | 0.00 | 0.00 | 0.00 | 24 | 1005.8 |
| 20260507083554 | 104 | 225 | 0.0 | 1.0 | 0.00 | 0.00 | 0.00 | 23 | 1005.8 |
| 20260507083007 | 104 | 45 | 0.0 | 1.0 | 0.00 | 0.00 | 0.00 | 23 | 1005.6 |
| 20260507082420 | 105 | 270 | 0.0 | 1.0 | 0.00 | 0.00 | 0.00 | 23 | 1005.6 |
| 20260507081833 | 105 | 90 | 0.0 | 2.0 | 0.00 | 0.00 | 0.00 | 23 | 1005.6 |
| 20260507081245 | 105 | 225 | 0.0 | 2.0 | 0.00 | 0.00 | 0.00 | 23 | 1005.4 |
| 20260507080659 | 106 | 0 | 0.0 | 2.0 | 0.00 | 0.00 | 0.00 | 22 | 1005.5 |
| 20260507080112 | 106 | 270 | 0.0 | 2.0 | 0.00 | 0.00 | 0.00 | 22 | 1005.4 |
| 20260507075525 | 106 | 225 | 0.0 | 1.0 | 0.00 | 0.00 | 0.00 | 22 | 1005.4 |
| 20260507074937 | 107 | 225 | 0.0 | 2.0 | 0.00 | 0.00 | 0.00 | 22 | 1005.4 |
| 20260507074350 | 107 | 270 | 0.0 | 2.0 | 0.00 | 0.00 | 0.00 | 22 | 1005.5 |
| 20260507073803 | 108 | 225 | 0.0 | 3.0 | 0.00 | 0.00 | 0.00 | 21 | 1005.5 |
| 20260507073216 | 108 | 180 | 0.0 | 3.0 | 0.00 | 0.00 | 0.00 | 21 | 1005.4 |
| 20260507072629 | 109 | 225 | 0.0 | 3.0 | 0.00 | 0.00 | 0.00 | 21 | 1005.5 |
| 20260507072042 | 109 | 315 | 0.0 | 2.0 | 0.00 | 0.00 | 0.00 | 21 | 1005.6 |
| 20260507071455 | 109 | 225 | 0.0 | 3.0 | 0.00 | 0.00 | 0.00 | 21 | 1005.4 |
| 20260507070908 | 109 | 225 | 0.0 | 3.0 | 0.00 | 0.00 | 0.00 | 20 | 1005.4 |
| 20260507070321 | 110 | 270 | 0.0 | 3.0 | 0.00 | 0.00 | 0.00 | 20 | 1005.5 |
| 20260507065734 | 110 | 225 | 0.0 | 3.0 | 0.00 | 0.00 | 0.00 | 19 | 1005.4 |
| 20260507065147 | 110 | 225 | 0.0 | 3.0 | 0.00 | 0.00 | 0.00 | 19 | 1005.4 |
| 20260507064600 | 111 | 0 | 1.0 | 3.0 | 0.00 | 0.00 | 0.00 | 19 | 1005.4 |
| 20260507064013 | 111 | 180 | 0.0 | 3.0 | 0.00 | 0.00 | 0.00 | 20 | 1005.4 |
| 20260507063426 | 111 | 225 | 0.0 | 3.0 | 0.00 | 0.00 | 0.00 | 20 | 1005.4 |
| 20260507062839 | 111 | 180 | 0.0 | 4.0 | 0.00 | 0.00 | 0.00 | 20 | 1005.6 |
| 20260507062252 | 111 | 225 | 0.0 | 3.0 | 0.00 | 0.00 | 0.00 | 20 | 1005.4 |
| 20260507061705 | 111 | 180 | 0.0 | 3.0 | 0.00 | 0.00 | 0.00 | 20 | 1005.5 |